Location: Ku?niki
(51.4449°N, 17.8974°E)
Time: 19:10:59
(UTC+00:00)

ARIANE 5 R/B - Pass Details

Date: 18 September 2020
Orbit: 620 x 657 km, 98.2° (Epoch: 09 October)

Event Time Altitude Azimuth Distance (km) Brightness Sun altitude
Exits shadow 19:37:43 88° 322° (NW) 632 2.5 -24.3°
Drops below altitude 10° 19:42:03 10° 345° (NNW) 2,003 5.8 -24.9°
Sets 19:44:14 0° 346° (NNW) 2,913 6.8 -25.1°
